Home > Weather > Dijon > Past weeks

Flag for France Past Weather in Dijon, Burgundy, France — Yesterday and Last 2 Weeks

Now
79 °F

Sunny.


Feels Like: 80 °F
Forecast: 59 / 78 °F
Wind: 7 mph from North

Location: Dijon Airport

Current Time: Jul 24, 2016 at 8:43:59 PM

Latest Report: Jul 24, 2016 at 8:00 PM


Visibility: 10 mi

Pressure: 30.09 "Hg

Humidity: 54%

Dew Point: 61 °F

Location of DijonLocation

Past Weather in Dijon — Graph

°F

Dijon Temperature Yesterday

Maximum temperature yesterday: 79 °F (at 3:30 PM)
Minimum temperature yesterday: 63 °F (at 6:30 AM)
Average temperature yesterday: 70 °F

High & Low Weather Summary for the Past Weeks

 TemperatureHumidityPressure
High93 °F (Jul 19, 4:00 PM)100% (Jul 13, 4:00 AM)30.36 "Hg (Jul 13, 4:00 AM)
Low48 °F (Jul 15, 6:00 AM)28% (Jul 19, 5:00 PM)29.89 "Hg (Jul 10, 5:30 PM)
Average70 °F68%30.10 "Hg
* Reported Jul 9 7:00 PM — Jul 24 7:00 PM, Dijon, Weather by CustomWeather, © 2016

Note: Actual official high and low records may vary slightly from our data, if they occured in-between our weather recording intervals... More about our weather records

Advertising

Dijon Weather History for the Previous 24 Hours

Scroll right to see more
 ConditionsComfort  
Time TempWeatherWind HumidityBarometerVisibility
7:00 PM
Sun, Jul 24
81 °FPassing clouds.9 mph48%30.09 "HgN/A
6:30 PM81 °FSunny.9 mph51%30.09 "Hg10 mi
6:00 PM81 °FSunny.10 mph48%30.09 "Hg10 mi
5:30 PM81 °FSunny.9 mph51%30.09 "Hg10 mi
5:00 PM79 °FScattered clouds.9 mph54%30.12 "HgN/A
4:30 PM79 °FPartly sunny.9 mph51%30.12 "HgN/A
4:00 PM79 °FScattered clouds.7 mph54%30.12 "HgN/A
3:30 PM79 °FOvercast.9 mph54%30.12 "HgN/A
3:00 PM77 °FOvercast.9 mph57%30.12 "HgN/A
2:30 PM77 °FPartly sunny.8 mph57%30.15 "HgN/A
2:00 PM77 °FPartly sunny.10 mph61%30.15 "HgN/A
1:30 PM75 °FPartly sunny.12 mph65%30.15 "HgN/A
1:00 PM73 °FPartly sunny.9 mph65%30.15 "HgN/A
12:30 PM73 °FBroken clouds.10 mph69%30.15 "HgN/A
12:00 PM73 °FPartly sunny.10 mph74%30.15 "HgN/A
11:30 AM72 °FOvercast.8 mph73%30.15 "HgN/A
11:00 AM72 °FOvercast.8 mph73%30.15 "HgN/A
10:30 AM72 °FCloudy.5 mph78%30.15 "HgN/A
10:00 AM70 °FPartly sunny.5 mph83%30.15 "Hg6 mi
9:30 AM70 °FPartly sunny.7 mph83%30.15 "Hg4 mi
9:00 AM68 °FPartly sunny.8 mph83%30.15 "Hg4 mi
8:30 AM68 °FClear.8 mph83%30.12 "Hg5 mi
8:00 AM68 °FClear.5 mph88%30.12 "Hg6 mi
7:30 AM66 °FOvercast.5 mph94%30.12 "Hg6 mi
7:00 AM66 °FMostly cloudy.6 mph94%30.12 "Hg5 mi
6:30 AM66 °FMostly cloudy.5 mph94%30.12 "HgN/A
6:00 AM66 °FPassing clouds.3 mph94%30.12 "Hg5 mi
5:30 AM66 °FRain. Mostly cloudy.7 mph94%30.12 "Hg5 mi
5:00 AM66 °FMostly cloudy.5 mph94%30.12 "Hg5 mi
4:30 AM66 °FOvercast.5 mph94%30.12 "Hg6 mi
4:00 AM66 °FLight rain. Partly cloudy.6 mph94%30.12 "HgN/A
3:30 AM66 °FMostly cloudy.7 mph88%30.12 "HgN/A
3:00 AM66 °FPartly cloudy.7 mph88%30.15 "HgN/A
2:30 AM68 °FOvercast.6 mph83%30.15 "HgN/A
2:00 AM68 °FMostly cloudy.5 mph83%30.15 "HgN/A
1:30 AM68 °FClear.3 mph83%30.15 "Hg10 mi
1:00 AM68 °FPartly cloudy.3 mph83%30.15 "HgN/A
12:30 AM68 °FClear.3 mph83%30.15 "Hg10 mi
12:00 AM68 °FClear.5 mph83%30.15 "Hg10 mi
11:30 PM
Sat, Jul 23
68 °FClear.6 mph83%30.15 "Hg10 mi
11:00 PM68 °FClear.6 mph83%30.15 "Hg10 mi
10:30 PM68 °FClear.6 mph83%30.12 "Hg10 mi
10:00 PM68 °FLight rain. Clear.7 mph83%30.12 "HgN/A
9:30 PM68 °FSunny.9 mph83%30.12 "Hg10 mi
9:00 PM70 °FSunny.14 mph73%30.12 "Hg10 mi
8:30 PM72 °FPartly sunny.10 mph73%30.09 "HgN/A
8:00 PM72 °FMild.9 mph73%30.09 "HgN/A
Weather by CustomWeather, © 2016

See weather overviewHow to use our weather pages